Voltar ao catálogo

STARLINK-38083

AtivoComunicaçõesSSO
NORAD 100385·PAYLOAD·🇺🇸 United States

Lançado Aug 19, 2026 de Vandenberg Space Force Base

Loading…

Próximas Passagens (próximas 24 horas)

TLE

AtualizadoSource: Space-Track

Época: Sep 14, 2026, 12:50 UTC

1 A0385U 26190Q   26257.53537128  .00180149  00000-0  11908-2 0  9994
2 A0385  97.2850 111.5503 0004304 172.1616 187.9717 15.75036228  5431

Acompanhe STARLINK-38083 em tempo real com AllMySat

Download on the App Store